Abu Dhabi Bateen Airport, UAE

4:21 AM GST on February 08, 2016 (GMT +0400)
Abu Dhabi Bateen Airport

Weather History for 41216 - February, 2014

Change the Weather History Date:

Sunday, February 16, 2014

  Actual Average Record
Temperature  
Mean Temperature 69 °F -  
Max Temperature 79 °F 80 °F - ()
Min Temperature 59 °F 61 °F - ()
Cooling Degree Days 4    
Growing Degree Days 19 (Base 50)    
Moisture  
Dew Point 56 °F    
Average Humidity 67    
Maximum Humidity 94    
Minimum Humidity 20    
Precipitation  
Precipitation 0.00 in 0.02 in - ()
Sea Level Pressure  
Sea Level Pressure 29.97 in    
Wind  
Wind Speed 5 mph ()    
Max Wind Speed 14 mph    
Max Gust Speed -    
Visibility 4.8 miles    
Events      
T = Trace of Precipitation, MM = Missing Value Source: Averaged Metar Reports

Daily Weather History Graph

Daily Weather History Graph

Search for Another Location

Airport or City:

Trip Planner

Search our weather history database for the weather conditions in past years. The results will help you decide how hot, cold, wet, or windy it might be!

Date:

Astronomy

Feb. 16, 2014 Rise Set
Actual Time 6:55 AM GST 6:17 PM GST
Civil Twilight 6:32 AM GST 6:40 PM GST
Nautical Twilight 6:05 AM GST 7:07 PM GST
Astronomical Twilight 5:38 AM GST 7:33 PM GST
Moon 7:36 PM GST (2/16) 7:25 AM GST (2/16)
Length of Visible Light 12h 08m
Length of Day
11h 21m
Full, 98% of the Moon is Illuminated
Feb 16
Full
Feb 22
Last Quarter
Mar 1
New
Mar 8
First Quarter
Mar 16
Full

Hourly Weather History & Observations

Time (GST) Temp. Dew Point Humidity Pressure Visibility Wind Dir Wind Speed Gust Speed Precip Events Conditions
12:00 AM 66.2 °F 59.0 °F 78% 30.01 in - North 6.9 mph - N/A   Clear
1:00 AM 65 °F 59 °F 74% 30.01 in 6 mi North 4.6 mph - -  
1:00 AM 64.4 °F 59.0 °F 83% 30.01 in - North 4.6 mph - N/A   Clear
2:00 AM 64.4 °F 59.0 °F 83% 29.98 in - North 4.6 mph - N/A   Clear
3:00 AM 64.4 °F 59.0 °F 83% 29.98 in - NNW 3.5 mph - N/A   Clear
4:00 AM 62 °F 58 °F 82% 29.97 in 6 mi 2.3 mph - -   Haze
4:00 AM 62.6 °F 57.2 °F 82% 29.95 in 5.6 mi Variable 2.3 mph - N/A   Unknown
5:00 AM 62.6 °F 59.0 °F 88% 29.95 in 5.0 mi Calm Calm - N/A   Unknown
6:00 AM 59.0 °F 57.2 °F 94% 29.95 in 4.3 mi WNW 2.3 mph - N/A   Unknown
7:00 AM 60 °F 58 °F 93% 29.99 in 2 mi SSE 2.3 mph - -   Mist
7:00 AM 60.8 °F 59.0 °F 94% 29.98 in 2.5 mi SSE 2.3 mph - N/A   Mist
8:00 AM 60.8 °F 59.0 °F 94% 29.98 in 2.2 mi Variable 1.2 mph - N/A   Mist
9:00 AM 64.4 °F 62.6 °F 94% 30.01 in 2.5 mi SSE 2.3 mph - N/A   Haze
10:00 AM 69 °F 59 °F 61% 30.02 in 6 mi East 5.8 mph - -   Haze
10:00 AM 69.8 °F 59.0 °F 68% 30.01 in 5.6 mi East 5.8 mph - N/A   Unknown
11:00 AM 71.6 °F 55.4 °F 57% 30.01 in - East 5.8 mph - N/A   Clear
12:00 PM 73.4 °F 42.8 °F 33% 30.01 in - ENE 6.9 mph - N/A   Clear
1:00 PM 77 °F 44 °F 20% 29.98 in 6 mi 2.3 mph - -  
1:00 PM 77.0 °F 44.6 °F 32% 29.98 in - Variable 2.3 mph - N/A   Clear
2:00 PM 77.0 °F 44.6 °F 32% 29.95 in - North 5.8 mph - N/A   Clear
3:00 PM 77.0 °F 53.6 °F 44% 29.92 in - NNW 13.8 mph - N/A   Clear
4:00 PM 74 °F 54 °F 40% 29.92 in 6 mi NNW 11.5 mph - -  
4:00 PM 73.4 °F 55.4 °F 53% 29.92 in - NNW 11.5 mph - N/A   Clear
5:00 PM 73.4 °F 51.8 °F 47% 29.92 in - North 9.2 mph - N/A   Clear
6:00 PM 71.6 °F 55.4 °F 57% 29.92 in - North 8.1 mph - N/A   Clear
7:00 PM 69 °F 60 °F 64% 29.95 in 6 mi North 6.9 mph - -  
7:00 PM 69.8 °F 59.0 °F 68% 29.95 in - North 6.9 mph - N/A   Clear
8:00 PM 68.0 °F 59.0 °F 73% 29.95 in - NNE 8.1 mph - N/A   Clear
9:00 PM 68.0 °F 59.0 °F 73% 29.98 in - NE 5.8 mph - N/A   Clear
10:00 PM 68 °F 59 °F 66% 29.96 in 6 mi ENE 10.4 mph - -  
10:00 PM 68.0 °F 59.0 °F 73% 29.95 in - ENE 10.4 mph - N/A   Clear
11:00 PM 68.0 °F 57.2 °F 68% 29.95 in - East 8.1 mph - N/A   Clear